EN

Hourly Weather Paplin

Today, 2 March, Tuesday

Time Temperature Precipitation Wind Pressure Humidity
00:00 0°C° 0 mm 5 mps 763 mmHg 94%
01:00 -1°C° 0 mm 4 mps 763 mmHg 93%
02:00 -1°C° 0 mm 5 mps 763 mmHg 94%
03:00 -1°C° 0 mm 5 mps 763 mmHg 95%
04:00 -1°C° 0 mm 5 mps 762 mmHg 96%
05:00 -1°C° 0 mm 5 mps 762 mmHg 95%
06:00 -1°C° 0 mm 5 mps 762 mmHg 94%
07:00 -1°C° 0 mm 5 mps 762 mmHg 93%
08:00 +1°C° 0 mm 5 mps 762 mmHg 87%
09:00 +2°C° 0 mm 5 mps 762 mmHg 82%
10:00 +3°C° 0 mm 5 mps 762 mmHg 76%
11:00 +5°C° 0 mm 5 mps 762 mmHg 70%
12:00 +5°C° 0 mm 6 mps 762 mmHg 65%
13:00 +8°C° 0 mm 6 mps 761 mmHg 59%
14:00 +7°C° 0 mm 5 mps 761 mmHg 60%
15:00 +7°C° 0 mm 5 mps 761 mmHg 61%
16:00 +7°C° 0 mm 5 mps 761 mmHg 62%
17:00 +6°C° 0 mm 4 mps 761 mmHg 69%
18:00 +5°C° 0 mm 4 mps 762 mmHg 75%
19:00 +3°C° 0 mm 3 mps 762 mmHg 82%
20:00 +3°C° 0 mm 3 mps 762 mmHg 85%
21:00 +2°C° 0 mm 3 mps 763 mmHg 89%
22:00 +2°C° 0 mm 2 mps 763 mmHg 92%
23:00 +2°C° 0 mm 2 mps 763 mmHg 92%

Tomorrow, 3 March, Wednesday

Time Temperature Precipitation Wind Pressure Humidity
00:00 +1°C° 0 mm 2 mps 763 mmHg 92%
01:00 +2°C° 0 mm 1 mps 764 mmHg 91%
02:00 +1°C° 0 mm 1 mps 763 mmHg 90%
03:00 +1°C° 0 mm 1 mps 763 mmHg 89%
04:00 +1°C° 0 mm 1 mps 762 mmHg 88%
05:00 +1°C° 0 mm 1 mps 762 mmHg 86%
06:00 +1°C° 0 mm 1 mps 762 mmHg 83%
07:00 +1°C° 0 mm 0 mps 762 mmHg 80%
08:00 +3°C° 0 mm 1 mps 762 mmHg 72%
09:00 +5°C° 0 mm 1 mps 762 mmHg 64%
10:00 +6°C° 0 mm 1 mps 761 mmHg 55%
11:00 +6°C° 0 mm 2 mps 761 mmHg 55%
12:00 +7°C° 0 mm 2 mps 760 mmHg 54%
13:00 +8°C° 0 mm 3 mps 760 mmHg 53%
14:00 +8°C° 0 mm 3 mps 759 mmHg 57%
15:00 +8°C° 0 mm 3 mps 758 mmHg 60%
16:00 +8°C° 0 mm 3 mps 757 mmHg 63%
17:00 +7°C° 0 mm 3 mps 757 mmHg 67%
18:00 +4°C° 0 mm 3 mps 756 mmHg 72%
19:00 +3°C° 0 mm 3 mps 756 mmHg 76%
20:00 +3°C° 0 mm 3 mps 755 mmHg 77%
21:00 +3°C° 0 mm 3 mps 755 mmHg 78%
22:00 +2°C° 0 mm 3 mps 754 mmHg 79%
23:00 +2°C° 0 mm 3 mps 753 mmHg 81%

Day after tomorrow, 4 March, Thursday

Time Temperature Precipitation Wind Pressure Humidity
00:00 +1°C° 0 mm 4 mps 753 mmHg 83%
01:00 +1°C° 0 mm 4 mps 752 mmHg 85%
02:00 +1°C° 0 mm 4 mps 751 mmHg 87%
03:00 +1°C° 0 mm 4 mps 751 mmHg 89%
04:00 +1°C° 0 mm 5 mps 750 mmHg 91%
05:00 +1°C° 0 mm 5 mps 750 mmHg 92%
06:00 +1°C° 0 mm 5 mps 749 mmHg 93%
07:00 +1°C° 0 mm 5 mps 749 mmHg 95%
08:00 +1°C° 0 mm 5 mps 749 mmHg 92%
09:00 +2°C° 0 mm 5 mps 749 mmHg 88%
10:00 +3°C° 0 mm 6 mps 748 mmHg 85%
11:00 +3°C° 0 mm 6 mps 748 mmHg 84%
12:00 +3°C° 0 mm 6 mps 748 mmHg 82%
13:00 +3°C° 0 mm 6 mps 748 mmHg 80%
14:00 +2°C° 0 mm 6 mps 748 mmHg 80%
15:00 +2°C° 0 mm 5 mps 748 mmHg 79%
16:00 +2°C° 0 mm 5 mps 747 mmHg 79%
17:00 +1°C° 0 mm 5 mps 748 mmHg 83%
18:00 +1°C° 0 mm 4 mps 748 mmHg 86%
19:00 0°C° 0 mm 4 mps 748 mmHg 90%
20:00 -1°C° 0.1 mm 4 mps 749 mmHg 86%
21:00 -1°C° 0.1 mm 4 mps 749 mmHg 82%
22:00 -1°C° 0.1 mm 3 mps 749 mmHg 78%
23:00 -1°C° 0 mm 3 mps 749 mmHg 78%

5 March, Friday

Time Temperature Precipitation Wind Pressure Humidity
00:00 -1°C° 0 mm 3 mps 750 mmHg 78%
01:00 -2°C° 0 mm 3 mps 750 mmHg 78%
02:00 -2°C° 0 mm 3 mps 750 mmHg 78%
03:00 -2°C° 0 mm 3 mps 750 mmHg 78%
04:00 -2°C° 0 mm 3 mps 751 mmHg 78%
05:00 -4°C° 0 mm 3 mps 751 mmHg 76%
06:00 -4°C° 0 mm 3 mps 751 mmHg 75%
07:00 -4°C° 0 mm 3 mps 752 mmHg 73%
08:00 -2°C° 0 mm 3 mps 752 mmHg 64%
09:00 -1°C° 0 mm 3 mps 752 mmHg 55%
10:00 -1°C° 0 mm 4 mps 752 mmHg 46%
11:00 0°C° 0 mm 4 mps 753 mmHg 43%
12:00 0°C° 0 mm 4 mps 753 mmHg 39%
13:00 +1°C° 0 mm 4 mps 753 mmHg 35%
14:00 +2°C° 0 mm 3 mps 753 mmHg 37%
15:00 +2°C° 0 mm 3 mps 753 mmHg 39%
16:00 +1°C° 0 mm 3 mps 754 mmHg 41%
17:00 0°C° 0 mm 3 mps 754 mmHg 45%
18:00 -1°C° 0 mm 2 mps 755 mmHg 48%
19:00 -2°C° 0 mm 2 mps 755 mmHg 51%
20:00 -2°C° 0 mm 2 mps 756 mmHg 50%
21:00 0°C° 0 mm 1 mps 756 mmHg 49%
22:00 0°C° 0 mm 1 mps 756 mmHg 47%
23:00 -2°C° 0 mm 2 mps 757 mmHg 55%

6 March, Saturday

Time Temperature Precipitation Wind Pressure Humidity
00:00 -4°C° 0 mm 3 mps 757 mmHg 62%
01:00 -4°C° 0 mm 3 mps 757 mmHg 70%
02:00 -4°C° 0 mm 4 mps 758 mmHg 67%
03:00 -4°C° 0 mm 4 mps 758 mmHg 64%
04:00 -5°C° 0 mm 4 mps 758 mmHg 61%
05:00 -5°C° 0 mm 4 mps 759 mmHg 60%
06:00 -5°C° 0 mm 4 mps 759 mmHg 60%
07:00 -5°C° 0 mm 3 mps 759 mmHg 60%
08:00 -4°C° 0 mm 4 mps 760 mmHg 55%
09:00 -3°C° 0 mm 4 mps 760 mmHg 51%
10:00 -2°C° 0 mm 5 mps 760 mmHg 47%
11:00 -2°C° 0 mm 4 mps 760 mmHg 45%
12:00 -1°C° 0 mm 4 mps 760 mmHg 43%
13:00 0°C° 0 mm 4 mps 760 mmHg 41%
14:00 -1°C° 0 mm 4 mps 760 mmHg 42%
15:00 -1°C° 0 mm 5 mps 760 mmHg 43%
16:00 -1°C° 0 mm 5 mps 759 mmHg 44%
17:00 -2°C° 0 mm 5 mps 759 mmHg 49%
18:00 -3°C° 0 mm 4 mps 759 mmHg 54%
19:00 -3°C° 0 mm 4 mps 758 mmHg 59%
20:00 -3°C° 0 mm 4 mps 758 mmHg 58%
21:00 -4°C° 0 mm 5 mps 758 mmHg 57%
22:00 -4°C° 0 mm 6 mps 758 mmHg 56%
23:00 -4°C° 0 mm 6 mps 757 mmHg 59%

7 March, Sunday

Time Temperature Precipitation Wind Pressure Humidity
00:00 -4°C° 0 mm 6 mps 756 mmHg 61%
01:00 -4°C° 0 mm 7 mps 756 mmHg 64%
02:00 -3°C° 0 mm 7 mps 755 mmHg 71%
03:00 -4°C° 0 mm 8 mps 754 mmHg 79%
04:00 -4°C° 0 mm 8 mps 754 mmHg 86%
05:00 -4°C° 0.2 mm 8 mps 753 mmHg 85%
06:00 -4°C° 0.2 mm 9 mps 753 mmHg 83%
07:00 -4°C° 0.2 mm 9 mps 752 mmHg 82%
08:00 -3°C° 0 mm 9 mps 752 mmHg 81%
09:00 -3°C° 0 mm 9 mps 751 mmHg 81%
10:00 -3°C° 0 mm 10 mps 751 mmHg 80%
11:00 -2°C° 0 mm 10 mps 750 mmHg 80%
12:00 -2°C° 0 mm 10 mps 750 mmHg 80%
13:00 -2°C° 0 mm 10 mps 750 mmHg 80%
14:00 -2°C° 0 mm 10 mps 749 mmHg 83%
15:00 -2°C° 0 mm 10 mps 749 mmHg 86%
16:00 -3°C° 0 mm 9 mps 749 mmHg 89%
17:00 -3°C° 0.1 mm 9 mps 749 mmHg 90%
18:00 -2°C° 0.1 mm 8 mps 749 mmHg 90%
19:00 -4°C° 0.1 mm 8 mps 749 mmHg 91%
20:00 -4°C° 0.7 mm 7 mps 749 mmHg 91%
21:00 -5°C° 0.7 mm 6 mps 749 mmHg 91%
22:00 -6°C° 0.7 mm 5 mps 749 mmHg 92%
23:00 -6°C° 0.2 mm 5 mps 750 mmHg 86%
Show more

We Need Your Consent

Meteoprog and our Service Providers may store and access personal data such as cookies, device identifiers or other similar technologies on your device and process such data to personalise content and ads, as well as provide social media features and to analyse the traffic.

  • Store and/or access information on your device

    Cookies, device identifiers or other information can be stored or accessed on your device for the purposes indicated above.

  • Personalised ads and content, ad and content measurement, audience insights, and products development

    Ads and content can be personalised based on a profile. More data can be added to better personalise ads and content. Ad and content performance can be measured. Insights about the audience who saw the ads and content can be derived. Such data can be used to develop or improve user’s experience, systems and software.

By clicking ‘I Agree’ you will allow the use of indicated cookies, device identifiers, web beacons or other similar technologies. Your settings can be changed in the browser on your device.

For certain purposes, legitimate interests may be relied on, rather than consent. You can read more about this in our Privacy and Cookie Policy.